When you browse on this site, cookies collect data to enhance your experience and personalize the content and advertising you see.
Visit our Privacy Policy to learn more. By continuing to use the site, you agree to this use of cookies and data.
  • In Portugal
  • List of Countries
  • For 7 days
  • Water Temperature
  • Satellite Maps
  • Weather Map
  • Weather Widgets
  • user-avatar
    Login

    Hourly Weather Alsagorka

    Today, 18 April, Thursday

    Time Temperature Precipitation Wind Pressure Humidity
    00:00 +7°C° 0 mm 1 mps 759 mmHg 75%
    01:00 +7°C° 0 mm 1 mps 759 mmHg 76%
    02:00 +6°C° 0 mm 1 mps 759 mmHg 76%
    03:00 +5°C° 0 mm 0 mps 759 mmHg 77%
    04:00 +5°C° 0 mm 0 mps 759 mmHg 78%
    05:00 +4°C° 0 mm 0 mps 759 mmHg 78%
    06:00 +7°C° 0 mm 1 mps 759 mmHg 73%
    07:00 +9°C° 0 mm 1 mps 759 mmHg 67%
    08:00 +9°C° 0 mm 2 mps 759 mmHg 62%
    09:00 +12°C° 0 mm 2 mps 759 mmHg 55%
    10:00 +12°C° 0 mm 3 mps 759 mmHg 49%
    11:00 +14°C° 0 mm 3 mps 758 mmHg 42%
    12:00 +16°C° 0 mm 3 mps 758 mmHg 41%
    13:00 +15°C° 0 mm 4 mps 757 mmHg 39%
    14:00 +17°C° 0 mm 4 mps 757 mmHg 37%
    15:00 +17°C° 0 mm 4 mps 756 mmHg 38%
    16:00 +15°C° 0 mm 5 mps 756 mmHg 39%
    17:00 +15°C° 0 mm 5 mps 756 mmHg 39%
    18:00 +14°C° 0 mm 5 mps 756 mmHg 44%
    19:00 +12°C° 0 mm 5 mps 756 mmHg 49%
    20:00 +9°C° 0 mm 5 mps 756 mmHg 53%
    21:00 +8°C° 0 mm 4 mps 756 mmHg 56%
    22:00 +7°C° 0 mm 4 mps 757 mmHg 59%
    23:00 +6°C° 0 mm 4 mps 757 mmHg 62%

    Tomorrow, 19 April, Friday

    Time Temperature Precipitation Wind Pressure Humidity
    00:00 +5°C° 0 mm 4 mps 757 mmHg 63%
    01:00 +5°C° 0 mm 4 mps 758 mmHg 64%
    02:00 +5°C° 0 mm 4 mps 758 mmHg 65%
    03:00 +4°C° 0 mm 4 mps 758 mmHg 68%
    04:00 +4°C° 0 mm 4 mps 758 mmHg 70%
    05:00 +3°C° 0 mm 4 mps 758 mmHg 73%
    06:00 +3°C° 0 mm 5 mps 758 mmHg 68%
    07:00 +6°C° 0 mm 5 mps 759 mmHg 63%
    08:00 +7°C° 0 mm 6 mps 759 mmHg 59%
    09:00 +8°C° 0 mm 6 mps 759 mmHg 53%
    10:00 +10°C° 0 mm 6 mps 759 mmHg 48%
    11:00 +12°C° 0 mm 5 mps 759 mmHg 42%
    12:00 +12°C° 0 mm 5 mps 759 mmHg 41%
    13:00 +13°C° 0 mm 5 mps 759 mmHg 40%
    14:00 +13°C° 0 mm 5 mps 759 mmHg 38%
    15:00 +13°C° 0 mm 4 mps 759 mmHg 39%
    16:00 +13°C° 0 mm 4 mps 759 mmHg 40%
    17:00 +12°C° 0 mm 4 mps 759 mmHg 41%
    18:00 +11°C° 0 mm 3 mps 759 mmHg 44%
    19:00 +10°C° 0 mm 2 mps 759 mmHg 47%
    20:00 +9°C° 0 mm 2 mps 759 mmHg 50%
    21:00 +9°C° 0 mm 1 mps 759 mmHg 52%
    22:00 +8°C° 0 mm 1 mps 759 mmHg 54%
    23:00 +6°C° 0 mm 0 mps 759 mmHg 56%

    Day after tomorrow, 20 April, Saturday

    Time Temperature Precipitation Wind Pressure Humidity
    00:00 +6°C° 0 mm 0 mps 759 mmHg 57%
    01:00 +6°C° 0 mm 0 mps 759 mmHg 58%
    02:00 +5°C° 0 mm 0 mps 758 mmHg 59%
    03:00 +6°C° 0 mm 1 mps 758 mmHg 60%
    04:00 +6°C° 0 mm 1 mps 758 mmHg 61%
    05:00 +6°C° 0 mm 1 mps 758 mmHg 61%
    06:00 +7°C° 0 mm 1 mps 758 mmHg 58%
    07:00 +8°C° 0 mm 2 mps 758 mmHg 55%
    08:00 +9°C° 0 mm 2 mps 758 mmHg 51%
    09:00 +12°C° 0 mm 2 mps 757 mmHg 48%
    10:00 +13°C° 0 mm 2 mps 757 mmHg 45%
    11:00 +13°C° 0 mm 3 mps 757 mmHg 42%
    12:00 +13°C° 0 mm 3 mps 757 mmHg 43%
    13:00 +13°C° 0 mm 3 mps 756 mmHg 43%
    14:00 +13°C° 0 mm 3 mps 756 mmHg 44%
    15:00 +14°C° 0 mm 2 mps 756 mmHg 46%
    16:00 +14°C° 0 mm 2 mps 756 mmHg 49%
    17:00 +13°C° 0 mm 2 mps 755 mmHg 51%
    18:00 +12°C° 0 mm 1 mps 755 mmHg 56%
    19:00 +11°C° 0 mm 1 mps 755 mmHg 61%
    20:00 +10°C° 0 mm 1 mps 755 mmHg 66%
    21:00 +10°C° 0.1 mm 1 mps 755 mmHg 70%
    22:00 +10°C° 0.1 mm 1 mps 755 mmHg 73%
    23:00 +9°C° 0.1 mm 1 mps 755 mmHg 77%

    21 April, Sunday

    Time Temperature Precipitation Wind Pressure Humidity
    00:00 +9°C° 0 mm 1 mps 755 mmHg 79%
    01:00 +8°C° 0 mm 1 mps 755 mmHg 82%
    02:00 +7°C° 0 mm 2 mps 755 mmHg 84%
    03:00 +7°C° 0.1 mm 2 mps 754 mmHg 85%
    04:00 +6°C° 0.1 mm 2 mps 754 mmHg 86%
    05:00 +6°C° 0.1 mm 2 mps 754 mmHg 87%
    06:00 +7°C° 0.3 mm 2 mps 754 mmHg 84%
    07:00 +8°C° 0.3 mm 2 mps 754 mmHg 81%
    08:00 +8°C° 0.3 mm 3 mps 755 mmHg 78%
    09:00 +9°C° 0.7 mm 3 mps 755 mmHg 74%
    10:00 +10°C° 0.7 mm 4 mps 755 mmHg 70%
    11:00 +10°C° 0.7 mm 4 mps 755 mmHg 66%
    12:00 +11°C° 0.2 mm 4 mps 755 mmHg 62%
    13:00 +12°C° 0.2 mm 5 mps 755 mmHg 58%
    14:00 +13°C° 0.2 mm 5 mps 755 mmHg 54%
    15:00 +13°C° 0.2 mm 5 mps 755 mmHg 53%
    16:00 +13°C° 0.2 mm 5 mps 755 mmHg 52%
    17:00 +13°C° 0.2 mm 5 mps 755 mmHg 51%
    18:00 +12°C° 0 mm 5 mps 755 mmHg 55%
    19:00 +10°C° 0 mm 4 mps 755 mmHg 58%
    20:00 +8°C° 0 mm 4 mps 755 mmHg 62%
    21:00 +8°C° 0 mm 4 mps 756 mmHg 62%
    22:00 +7°C° 0 mm 4 mps 756 mmHg 62%
    23:00 +7°C° 0 mm 4 mps 756 mmHg 62%

    22 April, Monday

    Time Temperature Precipitation Wind Pressure Humidity
    00:00 +6°C° 0 mm 4 mps 757 mmHg 64%
    01:00 +5°C° 0 mm 3 mps 757 mmHg 66%
    02:00 +5°C° 0 mm 3 mps 757 mmHg 68%
    03:00 +5°C° 0 mm 3 mps 757 mmHg 69%
    04:00 +5°C° 0 mm 3 mps 757 mmHg 70%
    05:00 +4°C° 0 mm 3 mps 758 mmHg 70%
    06:00 +7°C° 0 mm 3 mps 758 mmHg 65%
    07:00 +8°C° 0 mm 3 mps 758 mmHg 60%
    08:00 +10°C° 0 mm 4 mps 759 mmHg 54%
    09:00 +11°C° 0 mm 4 mps 759 mmHg 49%
    10:00 +12°C° 0 mm 4 mps 759 mmHg 43%
    11:00 +13°C° 0 mm 4 mps 759 mmHg 38%
    12:00 +13°C° 0 mm 4 mps 759 mmHg 38%
    13:00 +13°C° 0 mm 4 mps 759 mmHg 38%
    14:00 +14°C° 0 mm 4 mps 759 mmHg 38%
    15:00 +14°C° 0 mm 3 mps 759 mmHg 39%
    16:00 +13°C° 0 mm 3 mps 759 mmHg 40%
    17:00 +13°C° 0 mm 3 mps 759 mmHg 41%
    18:00 +12°C° 0 mm 3 mps 759 mmHg 46%
    19:00 +10°C° 0 mm 2 mps 760 mmHg 51%
    20:00 +9°C° 0 mm 2 mps 760 mmHg 57%
    21:00 +8°C° 0 mm 2 mps 760 mmHg 58%
    22:00 +8°C° 0 mm 2 mps 761 mmHg 59%
    23:00 +7°C° 0 mm 2 mps 761 mmHg 61%

    23 April, Tuesday

    Time Temperature Precipitation Wind Pressure Humidity
    00:00 +7°C° 0 mm 2 mps 761 mmHg 62%
    01:00 +6°C° 0 mm 2 mps 761 mmHg 64%
    02:00 +6°C° 0 mm 2 mps 761 mmHg 65%
    03:00 +6°C° 0 mm 2 mps 762 mmHg 66%
    04:00 +5°C° 0 mm 2 mps 762 mmHg 68%
    05:00 +5°C° 0 mm 2 mps 762 mmHg 69%
    06:00 +7°C° 0 mm 2 mps 762 mmHg 64%
    07:00 +9°C° 0 mm 2 mps 762 mmHg 59%
    08:00 +11°C° 0 mm 3 mps 763 mmHg 54%
    09:00 +12°C° 0 mm 3 mps 763 mmHg 48%
    10:00 +14°C° 0 mm 3 mps 763 mmHg 42%
    11:00 +15°C° 0 mm 4 mps 762 mmHg 36%
    12:00 +16°C° 0 mm 3 mps 762 mmHg 36%
    13:00 +16°C° 0 mm 3 mps 762 mmHg 37%
    14:00 +16°C° 0 mm 3 mps 762 mmHg 37%
    15:00 +16°C° 0 mm 3 mps 761 mmHg 38%
    16:00 +16°C° 0 mm 3 mps 761 mmHg 39%
    17:00 +16°C° 0 mm 3 mps 761 mmHg 40%
    18:00 +13°C° 0 mm 3 mps 761 mmHg 46%
    19:00 +11°C° 0 mm 3 mps 761 mmHg 51%
    20:00 +10°C° 0 mm 3 mps 761 mmHg 57%
    21:00 +9°C° 0 mm 3 mps 761 mmHg 58%
    22:00 +8°C° 0 mm 2 mps 761 mmHg 59%
    23:00 +8°C° 0 mm 2 mps 761 mmHg 61%
    Show more